Location: Chandolas
(44.4033°N, 4.2533°E)
Time: 11:24:55
(UTC+00:00)

ATLAS CENTAUR R/B - Pass Details

Date: 15 November 2019
Orbit: 457 x 691 km, 64.7° (Epoch: 30 November)

Event Time Altitude Azimuth Distance (km) Brightness Sun altitude
Rises 04:41:30 0° 178° (S) 3,044 5.2 -20.9°
Reaches altitude 10° 04:44:13 10° 164° (SSE) 2,136 4.6 -20.4°
Maximum altitude 04:48:02 23° 112° (ESE) 1,448 4.2 -19.7°
Drops below altitude 10° 04:51:48 10° 61° (ENE) 2,117 5.1 -19.0°
Sets 04:54:29 0° 47° (NE) 3,010 5.7 -18.6°
